Beaver Island, MI

11:03 PM EDT on August 29, 2016 (GMT -0400)
Beaver Island

Weather History for KSJX - December, 2012

Change the Weather History Date:

Thursday, December 6, 2012

  Actual Average Record
Temperature  
Mean Temperature 38 °F -  
Max Temperature 44 °F 35 °F 53 °F (2001)
Min Temperature 33 °F 25 °F 5 °F (1964)
Degree Days  
Heating Degree Days 26    
Moisture  
Dew Point 29 °F    
Average Humidity 71    
Maximum Humidity 84    
Minimum Humidity 63    
Precipitation  
Precipitation 0.00 in - - ()
Sea Level Pressure  
Sea Level Pressure 29.97 in    
Wind  
Wind Speed 9 mph (South)    
Max Wind Speed 17 mph    
Max Gust Speed 25 mph    
Visibility 10 miles    
Events Rain , Snow    
Averages and records for this station are not official NWS values.
T = Trace of Precipitation, MM = Missing Value Source: NWS Daily Summary

Daily Weather History Graph

Daily Weather History Graph

Search for Another Location

Airport or City:

Trip Planner

Search our weather history database for the weather conditions in past years. The results will help you decide how hot, cold, wet, or windy it might be!

Date:

Astronomy

Dec. 06, 2012 Rise Set
Actual Time 8:08 AM EST 4:58 PM EST
Civil Twilight 7:34 AM EST 5:32 PM EST
Nautical Twilight 6:57 AM EST 6:09 PM EST
Astronomical Twilight 6:21 AM EST 6:45 PM EST
Moon 12:03 AM EST (12/6) 12:43 PM EST (12/6)
Length of Visible Light 9h 57m
Length of Day
8h 49m
Waning Gibbous, 49% of the Moon is Illuminated
Dec 6
Waning Gibbous
Dec 13
New
Dec 20
First Quarter
Dec 28
Full
Jan 4
Last Quarter

Hourly Weather History & Observations

Time (EST) Temp. Windchill Dew Point Humidity Pressure Visibility Wind Dir Wind Speed Gust Speed Precip Events Conditions
12:17 AM 33.4 °F 29.1 °F 24.3 °F 69% 30.22 in 10.0 mi South 4.6 mph - N/A   Clear
12:37 AM 34.0 °F 29.8 °F 24.4 °F 68% 30.23 in 10.0 mi South 4.6 mph - N/A   Clear
12:57 AM 34.0 °F 27.2 °F 24.3 °F 68% 30.22 in 10.0 mi South 8.1 mph 16.1 mph N/A   Clear
1:17 AM 34.3 °F 28.4 °F 24.4 °F 67% 30.22 in 10.0 mi South 6.9 mph 19.6 mph N/A   Mostly Cloudy
1:37 AM 34.7 °F 28.1 °F 24.6 °F 67% 30.21 in 10.0 mi South 8.1 mph 17.3 mph N/A   Scattered Clouds
1:57 AM 34.7 °F 26.9 °F 24.6 °F 67% 30.20 in 10.0 mi South 10.4 mph - N/A   Clear
2:17 AM 34.7 °F 28.8 °F 24.8 °F 67% 30.20 in 10.0 mi South 6.9 mph - N/A   Clear
2:37 AM 34.7 °F 27.5 °F 24.8 °F 67% 30.20 in 10.0 mi South 9.2 mph - N/A   Clear
2:57 AM 34.7 °F 28.8 °F 24.8 °F 67% 30.20 in 10.0 mi South 6.9 mph - N/A   Clear
3:17 AM 34.7 °F 29.6 °F 25.2 °F 68% 30.19 in 10.0 mi South 5.8 mph - N/A   Clear
3:37 AM 34.7 °F 29.6 °F 25.3 °F 69% 30.18 in 10.0 mi South 5.8 mph 16.1 mph N/A   Scattered Clouds
3:56 AM 34.5 °F 27.9 °F 25.5 °F 70% 30.17 in 10.0 mi South 8.1 mph - N/A   Scattered Clouds
4:17 AM 34.7 °F 29.6 °F 25.7 °F 70% 30.15 in 10.0 mi South 5.8 mph - N/A   Clear
4:37 AM 34.9 °F 29.9 °F 25.7 °F 69% 30.15 in 10.0 mi South 5.8 mph 16.1 mph N/A   Scattered Clouds
4:56 AM 34.9 °F 28.3 °F 25.7 °F 69% 30.14 in 10.0 mi South 8.1 mph - N/A   Mostly Cloudy
5:17 AM 35.1 °F 29.3 °F 25.7 °F 69% 30.14 in 10.0 mi South 6.9 mph - N/A   Mostly Cloudy
5:37 AM 34.9 °F 27.7 °F 25.7 °F 69% 30.13 in 10.0 mi South 9.2 mph - N/A   Overcast
5:57 AM 35.2 °F 28.1 °F 26.1 °F 69% 30.13 in 10.0 mi South 9.2 mph - N/A   Overcast
6:17 AM 35.1 °F 28.6 °F 26.1 °F 70% 30.12 in 10.0 mi South 8.1 mph - N/A   Mostly Cloudy
6:37 AM 35.2 °F 28.1 °F 25.7 °F 68% 30.11 in 10.0 mi South 9.2 mph - N/A   Mostly Cloudy
6:57 AM 35.4 °F 30.5 °F 26.1 °F 69% 30.10 in 10.0 mi South 5.8 mph - N/A   Mostly Cloudy
7:17 AM 35.6 °F 28.6 °F 26.4 °F 69% 30.09 in 10.0 mi South 9.2 mph - N/A   Mostly Cloudy
7:37 AM 35.6 °F 28.6 °F 26.6 °F 70% 30.08 in 10.0 mi SSE 9.2 mph 16.1 mph N/A   Overcast
7:57 AM 35.2 °F 29.5 °F 26.6 °F 71% 30.07 in 10.0 mi SSE 6.9 mph - N/A   Overcast
8:17 AM 35.4 °F 29.0 °F 26.6 °F 70% 30.06 in 10.0 mi South 8.1 mph 16.1 mph N/A   Overcast
8:37 AM 35.2 °F 28.1 °F 26.6 °F 71% 30.05 in 10.0 mi South 9.2 mph 17.3 mph N/A   Mostly Cloudy
8:57 AM 35.6 °F 30.7 °F 26.6 °F 70% 30.04 in 10.0 mi South 5.8 mph - N/A   Overcast
9:17 AM 36.5 °F 31.0 °F 27.3 °F 69% 30.04 in 10.0 mi SSW 6.9 mph 16.1 mph N/A   Mostly Cloudy
9:36 AM 36.5 °F 29.2 °F 25.3 °F 64% 30.03 in 10.0 mi South 10.4 mph 19.6 mph N/A   Overcast
9:57 AM 36.5 °F 28.2 °F 25.2 °F 64% 30.03 in 10.0 mi South 12.7 mph 19.6 mph N/A   Overcast
10:17 AM 36.9 °F 28.7 °F 25.3 °F 63% 30.01 in 10.0 mi South 12.7 mph 19.6 mph N/A   Overcast
10:36 AM 36.5 °F 28.2 °F 26.4 °F 67% 29.98 in 10.0 mi SE 12.7 mph 24.2 mph N/A   Drizzle
10:57 AM 36.5 °F 29.7 °F 25.9 °F 65% 30.00 in 10.0 mi South 9.2 mph - N/A Rain Light Rain
11:17 AM 35.6 °F 29.2 °F 28.2 °F 75% 29.99 in 10.0 mi South 8.1 mph - N/A Rain Rain
11:37 AM 36.5 °F 29.2 °F 28.2 °F 72% 29.97 in 10.0 mi SSE 10.4 mph 17.3 mph N/A   Light Drizzle
11:57 AM 36.9 °F 27.5 °F 26.6 °F 66% 29.96 in 10.0 mi South 16.1 mph 21.9 mph N/A   Overcast
12:17 PM 37.6 °F 30.5 °F 26.6 °F 65% 29.94 in 10.0 mi South 10.4 mph 16.1 mph N/A   Overcast
12:37 PM 37.6 °F 29.6 °F 27.5 °F 67% 29.93 in 10.0 mi SSE 12.7 mph 20.7 mph N/A   Overcast
12:57 PM 36.5 °F 28.7 °F 29.1 °F 75% 29.92 in 4.0 mi SSE 11.5 mph 17.3 mph N/A Snow Light Snow
1:17 PM 36.5 °F 29.7 °F 31.3 °F 81% 29.88 in 5.0 mi SSE 9.2 mph 18.4 mph N/A Rain Rain
1:37 PM 36.5 °F 27.4 °F 32.0 °F 84% 29.86 in 10.0 mi SSE 15.0 mph 20.7 mph N/A   Light Drizzle
1:57 PM 37.4 °F 29.8 °F 32.9 °F 84% 29.87 in 10.0 mi South 11.5 mph 19.6 mph N/A   Overcast
2:17 PM 37.8 °F 31.3 °F 32.4 °F 81% 29.87 in 10.0 mi South 9.2 mph 19.6 mph N/A   Overcast
2:37 PM 38.3 °F 31.9 °F 32.0 °F 78% 29.86 in 10.0 mi South 9.2 mph 20.7 mph N/A Rain Rain
2:57 PM 37.4 °F 29.3 °F 32.0 °F 81% 29.86 in 4.0 mi South 12.7 mph 20.7 mph N/A Rain Light Rain
3:17 PM 37.0 °F 29.8 °F 32.0 °F 82% 29.85 in 10.0 mi South 10.4 mph 19.6 mph N/A   Light Drizzle
3:37 PM 37.4 °F 30.8 °F 32.0 °F 81% 29.84 in 10.0 mi SSE 9.2 mph 17.3 mph N/A   Overcast
3:57 PM 38.3 °F 32.5 °F 31.1 °F 75% 29.83 in 10.0 mi South 8.1 mph 17.3 mph N/A   Overcast
4:17 PM 39.2 °F 32.0 °F 30.4 °F 71% 29.83 in 10.0 mi South 11.5 mph 18.4 mph N/A   Overcast
4:37 PM 39.2 °F 32.0 °F 30.2 °F 70% 29.84 in 10.0 mi SSW 11.5 mph 23.0 mph N/A   Overcast
4:57 PM 39.7 °F 32.3 °F 30.0 °F 68% 29.84 in 10.0 mi South 12.7 mph 20.7 mph N/A   Overcast
5:17 PM 40.1 °F 33.2 °F 30.2 °F 68% 29.83 in 10.0 mi South 11.5 mph 19.6 mph N/A   Overcast
5:37 PM 40.3 °F 33.9 °F 30.2 °F 67% 29.82 in 10.0 mi SSW 10.4 mph 17.3 mph N/A   Overcast
5:57 PM 40.8 °F 35.0 °F 31.3 °F 69% 29.82 in 10.0 mi South 9.2 mph 17.3 mph N/A   Overcast
6:17 PM 41.4 °F 35.2 °F 32.2 °F 70% 29.82 in 10.0 mi SSW 10.4 mph 19.6 mph N/A   Overcast
6:37 PM 41.5 °F 33.8 °F 32.9 °F 71% 29.82 in 10.0 mi SSW 15.0 mph 24.2 mph N/A   Overcast
6:57 PM 41.9 °F 35.4 °F 33.8 °F 73% 29.81 in 10.0 mi South 11.5 mph - N/A   Overcast
7:17 PM 41.9 °F 35.4 °F 34.0 °F 73% 29.81 in 10.0 mi SSW 11.5 mph 20.7 mph N/A   Overcast
7:37 PM 42.1 °F 35.2 °F 34.7 °F 75% 29.81 in 10.0 mi SSW 12.7 mph 23.0 mph N/A   Overcast
7:56 PM 42.3 °F 34.8 °F 35.1 °F 76% 29.81 in 10.0 mi SSW 15.0 mph 21.9 mph N/A   Overcast
8:17 PM 42.3 °F 35.1 °F 35.6 °F 77% 29.81 in 10.0 mi SW 13.8 mph 21.9 mph N/A   Overcast
8:37 PM 42.4 °F 36.1 °F 36.1 °F 78% 29.81 in 10.0 mi SW 11.5 mph 20.7 mph N/A   Overcast
8:57 PM 43.2 °F 35.3 °F 37.0 °F 79% 29.80 in 10.0 mi SW 17.3 mph 23.0 mph N/A   Light Drizzle
9:37 PM 43.7 °F 36.3 °F 35.6 °F 73% 29.80 in 10.0 mi WSW 16.1 mph 25.3 mph N/A   Overcast
9:57 PM 43.7 °F 36.3 °F 36.0 °F 74% 29.80 in 10.0 mi WSW 16.1 mph - N/A   Overcast
10:17 PM 43.7 °F 36.9 °F 34.7 °F 71% 29.80 in 10.0 mi WSW 13.8 mph 19.6 mph N/A   Overcast
10:37 PM 43.7 °F 37.7 °F 35.6 °F 73% 29.80 in 10.0 mi SW 11.5 mph 16.1 mph N/A   Overcast
10:57 PM 43.7 °F 37.7 °F 36.1 °F 75% 29.80 in 10.0 mi WSW 11.5 mph 16.1 mph N/A   Overcast
11:17 PM 44.1 °F 37.4 °F 36.3 °F 74% 29.80 in 10.0 mi WSW 13.8 mph 18.4 mph N/A   Overcast
11:37 PM 44.2 °F 38.0 °F 36.7 °F 75% 29.80 in 10.0 mi WSW 12.7 mph - N/A   Overcast
11:57 PM 44.2 °F 37.0 °F 36.7 °F 75% 29.81 in 10.0 mi WSW 16.1 mph 21.9 mph N/A   Overcast